#timestamp,LO_Frequency,Hit,StdDev 
1512579615.6,286046991.9,N
1512579635.4,286046990.7,N
1512579655.2,286046990.4,N
1512579675.1,286046994.6,N
1512579676.0,286046994.6,N
1512579695.8,286046994.0,N
1512579715.7,286046993.1,N
1512579735.5,286046993.4,N
1512579755.3,286047001.4,N
1512579775.2,286046998.7,N
1512579795.9,286047011.1,N
1512579815.7,286047006.6,N
1512579835.6,286047002.8,N
1512579855.4,286046995.6,N
1512579875.3,286046992.2,N
1512579895.1,286046989.3,N
1512579896.0,286046989.3,N
1512579915.8,286046984.4,N
1512579935.7,286046980.9,N
1512579955.5,286046977.7,Y
1512579975.3,286046979.6,P
1512579995.2,286046979.0,N
1512580015.0,286046977.5,N
1512580015.9,286046977.5,N
1512580035.8,286046977.6,Y
1512580055.6,286046995.5,P
1512580075.4,286046997.4,N
1512580095.3,286046998.6,N
1512580115.1,286046997.1,N
1512580135.9,286046993.4,N
1512580155.7,286046992.5,N
1512580175.5,286046994.0,N
1512580195.4,286046991.8,N
1512580215.2,286046993.7,N
1512580235.0,286046993.4,N
1512580235.9,286046993.4,N
1512580255.8,286046986.3,Y
1512580275.6,286047001.3,P
1512580295.5,286047003.6,N
1512580315.3,286047005.5,N
1512580335.1,286047005.4,N
1512580355.9,286047008.3,N
1512580375.7,286047008.0,N
1512580395.6,286047007.3,N
1512580415.4,286047005.9,N
1512580435.2,286047005.9,N
1512580455.1,286047004.6,N
1512580456.0,286047004.6,N
1512580475.8,286047004.7,N
1512580495.6,286047009.1,N
1512580515.5,286047008.4,N
1512580535.3,286047008.0,N
1512580555.2,286047007.7,N
1512580575.9,286047010.6,N
1512580595.7,286047008.4,N
1512580615.6,286047011.8,Y
1512580635.4,286047005.7,P
1512580655.3,286047002.5,P
1512580675.1,286046998.1,N
1512580676.0,286046998.1,N
1512580695.8,286046999.8,N
1512580715.7,286047004.4,N
1512580735.5,286047001.6,N
1512580755.3,286047001.4,N
1512580775.2,286047000.8,N
1512580795.0,286047002.6,N
1512580795.9,286047002.6,N
1512580815.8,286047004.4,N
1512580835.6,286047001.6,N
1512580855.4,286047003.6,N
1512580875.3,286047002.0,N
1512580895.1,286046999.8,N
1512580915.9,286047003.0,N
1512580935.7,286047005.4,N
1512580955.5,286047008.9,Y
1512580975.4,286047006.3,P
1512580995.2,286047008.6,P
1512581015.1,286047012.3,P
1512581016.0,286047012.3,Y
1512581035.8,286047002.3,P
1512581055.6,286046998.2,N
1512581075.5,286047001.1,N
1512581095.3,286047000.7,N
1512581115.1,286047002.4,N
1512581135.9,286047001.2,N
1512581155.7,286046999.0,N
1512581175.6,286046998.9,N
1512581195.4,286047000.9,N
1512581215.2,286047001.2,N
1512581235.1,286046999.8,N
1512581236.0,286046999.8,N
1512581255.8,286046998.4,N
1512581275.7,286046996.8,N
1512581295.5,286046996.8,N
1512581315.3,286046998.8,N
1512581335.2,286046999.2,N
1512581355.0,286046998.8,N
1512581355.9,286046998.8,N
1512581375.8,286046998.5,N
1512581395.6,286046997.4,N
1512581415.4,286046999.2,N
1512581435.3,286046996.9,N
1512581455.1,286046999.5,N
1512581475.8,286046998.6,N
1512581495.7,286046998.3,N
1512581515.5,286046998.3,N
1512581535.4,286046998.7,N
1512581555.2,286047002.0,N
1512581575.0,286047001.3,N
1512581575.9,286047001.3,N
1512581595.8,286047001.5,N
1512581615.6,286047003.8,N
1512581635.5,286047005.8,Y
1512581655.3,286047003.0,P
1512581675.1,286047001.5,N
1512581695.9,286046998.9,N
1512581715.7,286046999.2,N
1512581735.5,286046995.8,N
1512581755.4,286046999.0,N
1512581775.2,286046996.5,N
1512581795.1,286046997.0,N
1512581796.0,286046997.0,N
1512581815.8,286047000.7,N
1512581835.6,286047001.2,N
1512581855.5,286047001.3,N
1512581875.3,286047004.2,N
1512581895.2,286047000.9,N
1512581915.9,286046996.6,N
1512581935.7,286047000.7,N
1512581955.6,286047001.6,N
1512581975.4,286047000.6,N
1512581995.3,286047000.6,N
1512582015.1,286047001.2,N
1512582016.0,286047001.2,N
1512582035.8,286047002.8,N
1512582055.7,286047004.3,N
1512582075.5,286047004.8,N
1512582095.3,286047007.5,Y
1512582115.2,286047005.0,P
1512582135.0,286047004.9,N
1512582135.9,286047004.9,N
1512582155.8,286047003.8,N
1512582175.6,286047004.2,N
1512582195.4,286047002.5,N
1512582215.3,286047003.0,N
1512582235.1,286047001.7,N
1512582255.9,286047000.2,N
1512582275.7,286047000.1,N
1512582295.5,286047001.7,N
1512582315.4,286047002.0,N
1512582335.2,286047003.9,N
1512582355.1,286047003.1,N
1512582356.0,286047003.1,N
1512582375.8,286047005.3,Y
1512582395.6,286047005.4,P
1512582415.5,286047006.0,P
1512582435.3,286047005.5,P
1512582455.2,286047006.8,Y
1512582475.9,286047001.6,P
1512582495.7,286047000.0,N
1512582515.6,286047002.0,N
1512582535.4,286047000.6,N
1512582555.2,286046999.5,N
1512582575.1,286046998.1,N
1512582576.0,286046998.1,N
1512582595.8,286047000.4,N
1512582615.7,286047001.9,N
1512582635.5,286047000.0,N
1512582655.3,286047002.4,N
1512582675.2,286047000.2,N
1512582695.0,286047000.6,N
1512582695.9,286047000.6,N
1512582715.8,286046998.3,N
1512582735.6,286047000.7,N
1512582755.4,286047000.5,N
1512582775.3,286047000.4,N
1512582795.1,286047000.7,N
1512582815.8,286047000.3,N
1512582835.7,286047000.4,N
1512582855.5,286046997.0,N
1512582875.4,286046999.2,N
1512582895.2,286047001.0,N
1512582915.0,286047000.4,N
1512582915.9,286047000.4,N
1512582935.8,286046998.3,N
1512582955.6,286046998.5,N
1512582975.5,286046996.8,N
1512582995.3,286046998.3,N
1512583015.1,286047000.0,N
1512583035.9,286047000.0,N
1512583055.7,286047002.6,N
1512583075.6,286046998.2,N
1512583095.4,286047001.9,N
1512583115.2,286047004.1,N
1512583135.1,286047005.5,Y
1512583136.0,286047005.5,P
1512583155.8,286047001.7,N
1512583175.6,286047004.0,N
1512583195.5,286047006.0,N
